User: anonymous
Location: Young's Pond
(41.2695°N, 72.7766°W)
Time: 02:15:19
(UTC-04:00)
Language:

Spot 4 - Orbit

View from above orbital plane
View from above orbital plane
View from above satellite
View from above satellite

Ground track
Ground track

The orbit data is extracted from the following two-line orbital elements,

1 25260U 98017A   14232.85782430 -.00000070  00000-0 -55587-5 0  4246
2 25260 098.4550 297.2780 0012768 192.0876 168.0012 14.53005797852059
Epoch (UTC): 20 August 2014 20:35:16
Eccentricity: 0.0012768
inclination: 98.4550°
perigee height: 707 km
apogee height: 725 km
right ascension of ascending node: 297.2780°
argument of perigee: 192.0876°
revolutions per day: 14.53005797
mean anomaly at epoch: 168.0012°
orbit number at epoch: 85205

The dashed part of the orbit path shows where the satellite is in the earth's shadow,  

DLR